7 * 24
多渠道服务支持
GOES-1(原SMS-C)是美国于1975年10月16日从卡纳维拉尔角空军基地发射的地球静止轨道环境业务卫星,是GOES气象卫星系列的首颗运营卫星,重294千克,采用自旋稳定设计。 该卫星由美国国家海洋与大气局管理,搭载可见光/红外扫描辐射计、大气探测器及空间环境监测器,定位于地球同步轨道,可24小时连续对西半球开展气象观测,同时监测空间环境,开启了GOES系列长期服务天气预报与空间科学研究的历程。
美国
(US)
| 数据来源 | 国际轨道数据 |
| 星历时间: | 2026-04-19T22:49:59+0800 11小时前 查看轨道信息 |
| 半长轴: | 42171.289km |
| 偏心率: | 0.0004295 |
| 轨道倾角: | 4.756° |
| 近地点辐角 | 2.541° |
| 升交点赤经 | 278.201° |
| 平近点角 | 23.974° |
| 近地点: | 35775.039km |
| 远地点: | 35811.265km |
| 周期: | 1436.432分钟 |
| 每日圈数: | 1.002484 |